| time (UTC) | temp F | wind direction | speed knots | gust knots | rain 1hr in | rain 24hr in | rain mn in | humidity % | barometer mb |
| 20260906092850 | 70 | 350 | 2.6 | 4.3 | 0.00 | 0.36 | 0.00 | 87 | 1012.3 |
| 20260906092347 | 70 | 350 | 2.6 | 4.3 | 0.00 | 0.36 | 0.00 | 87 | 1012.3 |
| 20260906091850 | 70 | 350 | 1.7 | 4.3 | 0.00 | 0.36 | 0.00 | 87 | 1012.1 |
| 20260906091350 | 70 | 350 | 1.7 | 4.3 | 0.00 | 0.36 | 0.00 | 87 | 1012.0 |
| 20260906090850 | 70 | 350 | 3.5 | 3.5 | 0.00 | 0.36 | 0.00 | 87 | 1012.0 |
| 20260906090347 | 70 | 350 | 1.7 | 2.6 | 0.00 | 0.36 | 0.00 | 87 | 1011.9 |
| 20260906085847 | 70 | 350 | 0.0 | 2.6 | 0.00 | 0.36 | 0.00 | 87 | 1012.0 |
| 20260906085347 | 70 | 350 | 0.9 | 2.6 | 0.00 | 0.36 | 0.00 | 87 | 1011.9 |
| 20260906084847 | 70 | 350 | 0.9 | 2.6 | 0.00 | 0.36 | 0.00 | 87 | 1011.8 |
| 20260906084347 | 70 | 350 | 1.7 | 3.5 | 0.00 | 0.36 | 0.00 | 87 | 1011.8 |
| 20260906083850 | 70 | 350 | 2.6 | 4.3 | 0.00 | 0.36 | 0.00 | 87 | 1011.8 |
| 20260906083347 | 70 | 349 | 1.7 | 3.5 | 0.00 | 0.36 | 0.00 | 87 | 1011.9 |
| 20260906082847 | 70 | 349 | 2.6 | 3.5 | 0.00 | 0.36 | 0.00 | 87 | 1012.0 |
| 20260906082350 | 70 | 349 | 1.7 | 2.6 | 0.00 | 0.36 | 0.00 | 87 | 1011.9 |
| 20260906081847 | 70 | 349 | 1.7 | 4.3 | 0.00 | 0.36 | 0.00 | 87 | 1011.8 |
| 20260906081347 | 70 | 349 | 0.9 | 3.5 | 0.00 | 0.36 | 0.00 | 87 | 1011.6 |
| 20260906080850 | 70 | 349 | 1.7 | 3.5 | 0.00 | 0.36 | 0.00 | 87 | 1011.6 |
| 20260906080350 | 70 | 349 | 2.6 | 4.3 | 0.00 | 0.36 | 0.00 | 87 | 1011.6 |
| 20260906075850 | 70 | 348 | 2.6 | 4.3 | 0.00 | 0.36 | 0.00 | 87 | 1011.5 |
| 20260906075347 | 70 | 344 | 0.0 | 2.6 | 0.00 | 0.36 | 0.00 | 87 | 1011.3 |
| 20260906074847 | 71 | 344 | 0.9 | 3.5 | 0.00 | 0.36 | 0.00 | 87 | 1011.3 |
| 20260906074347 | 71 | 344 | 1.7 | 5.2 | 0.00 | 0.36 | 0.00 | 87 | 1011.3 |
| 20260906073850 | 71 | 346 | 2.6 | 5.2 | 0.00 | 0.36 | 0.00 | 87 | 1011.3 |
| 20260906073350 | 71 | 346 | 2.6 | 4.3 | 0.00 | 0.36 | 0.00 | 87 | 1011.4 |
| 20260906072847 | 71 | 345 | 4.3 | 7.0 | 0.00 | 0.36 | 0.00 | 87 | 1011.4 |
| 20260906072350 | 71 | 350 | 4.3 | 7.8 | 0.00 | 0.36 | 0.00 | 87 | 1011.5 |
| 20260906071847 | 71 | 324 | 3.5 | 5.2 | 0.00 | 0.36 | 0.00 | 87 | 1011.6 |
| 20260906071350 | 71 | 322 | 1.7 | 2.6 | 0.00 | 0.36 | 0.00 | 87 | 1011.7 |
| 20260906070847 | 71 | 322 | 0.9 | 3.5 | 0.00 | 0.36 | 0.00 | 87 | 1011.7 |
| 20260906065848 | 71 | 322 | 2.6 | 2.6 | 0.00 | 0.36 | 0.00 | 87 | 1011.8 |
| 20260906065348 | 71 | 322 | 1.7 | 3.5 | 0.00 | 0.36 | 0.00 | 87 | 1011.8 |
| 20260906064851 | 71 | 322 | 2.6 | 3.5 | 0.00 | 0.36 | 0.00 | 87 | 1011.9 |
| 20260906064351 | 71 | 322 | 0.0 | 0.0 | 0.00 | 0.36 | 0.00 | 87 | 1011.9 |
| 20260906063851 | 71 | 322 | 0.0 | 0.0 | 0.00 | 0.36 | 0.00 | 87 | 1012.0 |
| 20260906063348 | 71 | 322 | 0.0 | 0.0 | 0.00 | 0.36 | 0.00 | 87 | 1012.1 |
| 20260906062848 | 71 | 322 | 0.0 | 0.0 | 0.00 | 0.36 | 0.00 | 87 | 1012.2 |
| 20260906062348 | 71 | 322 | 0.0 | 0.9 | 0.00 | 0.36 | 0.00 | 87 | 1012.2 |
| 20260906061851 | 71 | 322 | 0.9 | 2.6 | 0.00 | 0.36 | 0.00 | 87 | 1012.3 |
| 20260906061348 | 71 | 322 | 0.0 | 1.7 | 0.00 | 0.36 | 0.00 | 87 | 1012.3 |
| 20260906060848 | 71 | 322 | 0.0 | 1.7 | 0.00 | 0.36 | 0.00 | 87 | 1012.2 |
| 20260906060348 | 71 | 322 | 0.0 | 1.7 | 0.00 | 0.36 | 0.00 | 87 | 1012.2 |
| 20260906055851 | 71 | 322 | 1.7 | 2.6 | 0.00 | 0.36 | 0.00 | 87 | 1012.3 |
| 20260906055351 | 71 | 322 | 1.7 | 2.6 | 0.00 | 0.36 | 0.00 | 87 | 1012.3 |
| 20260906054848 | 71 | 322 | 2.6 | 2.6 | 0.00 | 0.36 | 0.00 | 87 | 1012.3 |
| 20260906054351 | 71 | 322 | 0.9 | 1.7 | 0.00 | 0.36 | 0.00 | 87 | 1012.3 |
| 20260906053851 | 71 | 322 | 0.9 | 1.7 | 0.00 | 0.36 | 0.00 | 87 | 1012.2 |
| 20260906053351 | 71 | 322 | 0.9 | 0.9 | 0.00 | 0.36 | 0.00 | 87 | 1012.2 |
| 20260906052848 | 71 | 322 | 0.0 | 0.9 | 0.00 | 0.36 | 0.00 | 87 | 1012.2 |
| 20260906052351 | 71 | 322 | 0.0 | 0.9 | 0.00 | 0.36 | 0.00 | 87 | 1012.1 |
| 20260906051851 | 72 | 322 | 0.9 | 0.9 | 0.00 | 0.36 | 0.00 | 87 | 1012.2 |
| 20260906051351 | 72 | 322 | 0.0 | 1.7 | 0.00 | 0.36 | 0.00 | 87 | 1012.3 |
| 20260906050851 | 71 | 322 | 1.7 | 2.6 | 0.00 | 0.36 | 0.00 | 87 | 1012.2 |
| 20260906050351 | 72 | 322 | 0.0 | 1.7 | 0.00 | 0.36 | 0.00 | 87 | 1012.2 |
| 20260906045851 | 72 | 322 | 0.9 | 0.9 | 0.00 | 0.36 | 0.00 | 87 | 1012.3 |
| 20260906045348 | 72 | 322 | 0.0 | 0.9 | 0.00 | 0.36 | 0.00 | 87 | 1012.4 |
| 20260906044848 | 72 | 322 | 0.0 | 0.9 | 0.00 | 0.36 | 0.00 | 87 | 1012.4 |
| 20260906044348 | 72 | 322 | 0.0 | 1.7 | 0.00 | 0.36 | 0.00 | 87 | 1012.5 |
| 20260906043848 | 72 | 322 | 0.0 | 0.9 | 0.00 | 0.36 | 0.00 | 87 | 1012.6 |
| 20260906043351 | 72 | 322 | 0.0 | 0.0 | 0.00 | 0.36 | 0.00 | 87 | 1012.6 |
| 20260906042848 | 72 | 322 | 0.0 | 0.0 | 0.00 | 0.36 | 0.00 | 87 | 1012.7 |
| 20260906042348 | 72 | 322 | 0.0 | 0.0 | 0.00 | 0.36 | 0.00 | 87 | 1012.8 |
| 20260906041848 | 72 | 322 | 0.0 | 0.0 | 0.00 | 0.36 | 0.00 | 87 | 1012.9 |
| 20260906041348 | 72 | 322 | 0.0 | 1.7 | 0.00 | 0.36 | 0.00 | 87 | 1012.9 |
| 20260906040851 | 72 | 322 | 1.7 | 1.7 | 0.00 | 0.36 | 0.00 | 87 | 1012.9 |
| 20260906040351 | 72 | 322 | 0.9 | 1.7 | 0.00 | 0.36 | 0.00 | 87 | 1013.0 |
| 20260906035848 | 72 | 322 | 0.0 | 1.7 | 0.00 | 0.36 | 0.00 | 87 | 1012.9 |
| 20260906035348 | 72 | 322 | 0.9 | 2.6 | 0.00 | 0.36 | 0.00 | 87 | 1012.8 |
| 20260906034848 | 72 | 322 | 1.7 | 3.5 | 0.00 | 0.36 | 0.00 | 87 | 1012.7 |
| 20260906034348 | 72 | 322 | 2.6 | 2.6 | 0.00 | 0.36 | 0.00 | 87 | 1012.7 |
| 20260906033848 | 72 | 322 | 0.0 | 0.0 | 0.00 | 0.36 | 0.00 | 87 | 1012.8 |
| 20260906033351 | 72 | 322 | 0.0 | 0.0 | 0.00 | 0.36 | 0.00 | 87 | 1012.8 |
| 20260906032851 | 72 | 322 | 0.0 | 0.0 | 0.00 | 0.36 | 0.00 | 87 | 1012.9 |
| 20260906032351 | 72 | 322 | 0.0 | 0.0 | 0.00 | 0.36 | 0.00 | 87 | 1012.8 |
| 20260906031848 | 72 | 322 | 0.0 | 0.0 | 0.00 | 0.36 | 0.00 | 87 | 1012.8 |
| 20260906031351 | 72 | 322 | 0.0 | 0.0 | 0.00 | 0.36 | 0.00 | 87 | 1012.8 |
| 20260906030848 | 73 | 322 | 0.0 | 0.0 | 0.00 | 0.36 | 0.00 | 87 | 1012.7 |
| 20260906030351 | 72 | 322 | 0.0 | 0.0 | 0.00 | 0.36 | 0.00 | 87 | 1012.7 |
| 20260906025851 | 72 | 322 | 0.0 | 0.0 | 0.00 | 0.36 | 0.00 | 87 | 1012.7 |
| 20260906025348 | 73 | 322 | 0.0 | 0.0 | 0.00 | 0.36 | 0.00 | 87 | 1012.8 |
| 20260906024848 | 73 | 322 | 0.0 | 0.0 | 0.00 | 0.36 | 0.00 | 87 | 1012.8 |
| 20260906024348 | 73 | 322 | 0.0 | 0.0 | 0.00 | 0.36 | 0.00 | 87 | 1012.7 |
| 20260906023848 | 73 | 322 | 0.0 | 0.0 | 0.00 | 0.36 | 0.00 | 87 | 1012.7 |
| 20260906023348 | 73 | 322 | 0.0 | 0.0 | 0.00 | 0.36 | 0.00 | 87 | 1012.6 |
| 20260906022848 | 73 | 322 | 0.0 | 1.7 | 0.00 | 0.36 | 0.00 | 87 | 1012.6 |
| 20260906022351 | 73 | 322 | 0.0 | 0.0 | 0.00 | 0.36 | 0.00 | 87 | 1012.6 |
| 20260906021851 | 73 | 322 | 0.0 | 0.0 | 0.00 | 0.36 | 0.00 | 87 | 1012.6 |
| 20260906021351 | 73 | 322 | 0.0 | 0.0 | 0.00 | 0.36 | 0.00 | 87 | 1012.5 |
| 20260906020851 | 73 | 322 | 0.0 | 0.0 | 0.00 | 0.36 | 0.00 | 87 | 1012.6 |
| 20260906020348 | 73 | 322 | 0.0 | 0.0 | 0.00 | 0.36 | 0.00 | 87 | 1012.6 |
| 20260906015848 | 73 | 322 | 0.0 | 0.0 | 0.00 | 0.36 | 0.00 | 87 | 1012.7 |
| 20260906015351 | 73 | 322 | 0.0 | 0.0 | 0.00 | 0.36 | 0.00 | 87 | 1012.7 |
| 20260906014848 | 73 | 322 | 0.0 | 0.0 | 0.00 | 0.36 | 0.00 | 87 | 1012.7 |
| 20260906014348 | 73 | 322 | 0.0 | 0.0 | 0.00 | 0.36 | 0.00 | 87 | 1012.5 |
| 20260906013851 | 73 | 322 | 0.0 | 0.0 | 0.00 | 0.36 | 0.00 | 87 | 1012.4 |
| 20260906013348 | 73 | 322 | 0.0 | 0.0 | 0.00 | 0.36 | 0.00 | 87 | 1012.4 |
| 20260906012851 | 73 | 322 | 0.0 | 0.0 | 0.00 | 0.36 | 0.00 | 87 | 1012.3 |
| 20260906012348 | 73 | 322 | 0.0 | 0.0 | 0.00 | 0.36 | 0.00 | 87 | 1012.3 |
| 20260906011851 | 74 | 322 | 0.0 | 0.0 | 0.00 | 0.36 | 0.00 | 87 | 1012.3 |
| 20260906011348 | 74 | 322 | 0.0 | 0.0 | 0.00 | 0.36 | 0.00 | 87 | 1012.2 |
| 20260906010851 | 74 | 322 | 0.0 | 0.0 | 0.00 | 0.36 | 0.00 | 87 | 1012.1 |
| 20260906010348 | 74 | 322 | 0.0 | 0.0 | 0.00 | 0.36 | 0.00 | 87 | 1012.2 |
| 20260906005851 | 74 | 322 | 0.0 | 0.0 | 0.00 | 0.36 | 0.00 | 87 | 1012.2 |
| 20260906005351 | 74 | 322 | 0.0 | 0.0 | 0.00 | 0.36 | 0.00 | 87 | 1012.1 |
| 20260906004848 | 74 | 322 | 0.0 | 0.0 | 0.00 | 0.36 | 0.00 | 87 | 1012.1 |
| 20260906004348 | 74 | 322 | 0.0 | 0.0 | 0.00 | 0.36 | 0.00 | 87 | 1012.1 |
| 20260906003851 | 74 | 322 | 0.0 | 0.0 | 0.00 | 0.36 | 0.00 | 87 | 1012.0 |
| 20260906003348 | 74 | 322 | 0.0 | 0.0 | 0.00 | 0.36 | 0.00 | 87 | 1011.9 |
| 20260906002851 | 74 | 322 | 0.0 | 0.0 | 0.00 | 0.36 | 0.00 | 87 | 1011.8 |
| 20260906002348 | 74 | 322 | 0.0 | 0.0 | 0.00 | 0.36 | 0.00 | 87 | 1011.7 |
| 20260906001851 | 75 | 322 | 0.0 | 0.0 | 0.00 | 0.36 | 0.00 | 87 | 1011.7 |
| 20260906001348 | 75 | 322 | 0.0 | 0.0 | 0.00 | 0.36 | 0.00 | 87 | 1011.7 |
| 20260906000851 | 75 | 322 | 0.0 | 0.0 | 0.00 | 0.36 | 0.00 | 87 | 1011.7 |
| 20260906000351 | 76 | 322 | 0.0 | 0.0 | 0.00 | 0.36 | 0.00 | 87 | 1011.7 |
| 20260905235848 | 76 | 322 | 0.0 | 0.0 | 0.00 | 0.36 | 0.00 | 86 | 1011.6 |
| 20260905235351 | 76 | 322 | 0.0 | 0.0 | 0.00 | 0.36 | 0.00 | 86 | 1011.6 |
| 20260905234848 | 77 | 322 | 0.0 | 0.0 | 0.00 | 0.36 | 0.00 | 85 | 1011.6 |
| 20260905234348 | 77 | 322 | 0.0 | 0.0 | 0.00 | 0.36 | 0.00 | 85 | 1011.5 |
| 20260905233851 | 78 | 322 | 0.0 | 0.0 | 0.00 | 0.36 | 0.00 | 84 | 1011.6 |
| 20260905233351 | 78 | 322 | 0.0 | 0.0 | 0.00 | 0.36 | 0.00 | 84 | 1011.5 |
| 20260905232848 | 79 | 322 | 0.0 | 0.0 | 0.00 | 0.36 | 0.00 | 83 | 1011.5 |
| 20260905232351 | 79 | 322 | 0.0 | 1.7 | 0.00 | 0.36 | 0.00 | 83 | 1011.6 |
| 20260905231848 | 79 | 322 | 1.7 | 1.7 | 0.00 | 0.36 | 0.00 | 82 | 1011.5 |
| 20260905231348 | 80 | 319 | 1.7 | 2.6 | 0.00 | 0.36 | 0.00 | 81 | 1011.5 |
| 20260905230851 | 80 | 319 | 1.7 | 2.6 | 0.00 | 0.36 | 0.00 | 80 | 1011.5 |
| 20260905230348 | 81 | 319 | 1.7 | 2.6 | 0.00 | 0.36 | 0.00 | 79 | 1011.4 |
| 20260905225851 | 81 | 319 | 0.9 | 2.6 | 0.00 | 0.36 | 0.00 | 78 | 1011.4 |
| 20260905225351 | 81 | 319 | 1.7 | 1.7 | 0.00 | 0.36 | 0.00 | 77 | 1011.5 |
| 20260905224848 | 81 | 319 | 0.9 | 2.6 | 0.00 | 0.36 | 0.00 | 77 | 1011.5 |
| 20260905224348 | 81 | 319 | 1.7 | 4.3 | 0.00 | 0.36 | 0.00 | 75 | 1011.5 |
| 20260905223848 | 81 | 0 | 2.6 | 3.5 | 0.00 | 0.36 | 0.00 | 78 | 1011.5 |
| 20260905223351 | 81 | 0 | 1.7 | 4.3 | 0.00 | 0.36 | 0.00 | 77 | 1011.3 |
| 20260905222848 | 81 | 0 | 0.9 | 4.3 | 0.00 | 0.36 | 0.00 | 77 | 1011.4 |
| 20260905222348 | 81 | 238 | 0.0 | 0.0 | 0.00 | 0.36 | 0.00 | 77 | 1011.4 |
| 20260905221848 | 81 | 238 | 0.0 | 1.7 | 0.00 | 0.36 | 0.00 | 80 | 1011.2 |
| 20260905221351 | 81 | 238 | 0.9 | 3.5 | 0.00 | 0.36 | 0.00 | 79 | 1011.2 |
| 20260905220848 | 81 | 238 | 2.6 | 4.3 | 0.00 | 0.36 | 0.00 | 79 | 1011.2 |
| 20260905220348 | 81 | 238 | 1.7 | 3.5 | 0.00 | 0.36 | 0.00 | 79 | 1011.4 |
| 20260905215851 | 81 | 238 | 2.6 | 4.3 | 0.00 | 0.36 | 0.00 | 80 | 1011.6 |
| 20260905215348 | 81 | 240 | 4.3 | 4.3 | 0.00 | 0.36 | 0.00 | 81 | 1011.7 |
| 20260905214848 | 80 | 239 | 2.6 | 3.5 | 0.00 | 0.36 | 0.00 | 81 | 1011.8 |
| 20260905214351 | 80 | 239 | 1.7 | 1.7 | 0.00 | 0.36 | 0.00 | 81 | 1011.9 |
| 20260905213851 | 79 | 239 | 1.7 | 1.7 | 0.00 | 0.36 | 0.00 | 82 | 1011.8 |
| 20260905213348 | 79 | 239 | 1.7 | 2.6 | 0.00 | 0.36 | 0.00 | 82 | 1011.9 |
| 20260905212848 | 79 | 239 | 0.9 | 2.6 | 0.00 | 0.36 | 0.00 | 82 | 1011.9 |
| 20260905212348 | 78 | 239 | 1.7 | 2.6 | 0.00 | 0.36 | 0.00 | 82 | 1011.9 |
| 20260905211851 | 78 | 239 | 0.9 | 2.6 | 0.00 | 0.36 | 0.00 | 82 | 1011.9 |
| 20260905211351 | 78 | 239 | 0.0 | 2.6 | 0.00 | 0.36 | 0.00 | 83 | 1012.0 |
| 20260905210848 | 77 | 240 | 0.0 | 2.6 | 0.00 | 0.36 | 0.00 | 82 | 1012.0 |
| 20260905210351 | 78 | 240 | 1.7 | 3.5 | 0.00 | 0.36 | 0.00 | 84 | 1011.9 |
| 20260905205851 | 78 | 240 | 0.9 | 2.6 | 0.00 | 0.36 | 0.00 | 84 | 1011.9 |
| 20260905205351 | 78 | 240 | 0.0 | 1.7 | 0.00 | 0.36 | 0.00 | 84 | 1011.8 |
| 20260905204851 | 78 | 240 | 0.9 | 2.6 | 0.00 | 0.36 | 0.00 | 84 | 1011.9 |
| 20260905204351 | 78 | 240 | 0.0 | 3.5 | 0.00 | 0.36 | 0.00 | 83 | 1011.9 |
| 20260905203851 | 77 | 241 | 0.0 | 2.6 | 0.00 | 0.36 | 0.00 | 84 | 1011.8 |
| 20260905203348 | 78 | 243 | 1.7 | 4.3 | 0.00 | 0.36 | 0.00 | 85 | 1011.7 |
| 20260905202851 | 77 | 210 | 1.7 | 3.5 | 0.00 | 0.36 | 0.00 | 86 | 1011.8 |
| 20260905202348 | 76 | 217 | 0.9 | 5.2 | 0.00 | 0.36 | 0.00 | 87 | 1011.8 |
| 20260905201851 | 76 | 219 | 4.3 | 6.1 | 0.00 | 0.36 | 0.00 | 87 | 1011.9 |
| 20260905201351 | 75 | 262 | 6.1 | 7.0 | 0.00 | 0.36 | 0.00 | 87 | 1012.0 |
| 20260905200848 | 75 | 156 | 0.9 | 5.2 | 0.00 | 0.36 | 0.00 | 87 | 1011.8 |
| 20260905200348 | 75 | 140 | 1.7 | 4.3 | 0.00 | 0.36 | 0.00 | 87 | 1011.8 |
| 20260905195848 | 74 | 72 | 0.9 | 2.6 | 0.00 | 0.36 | 0.00 | 87 | 1011.8 |
| 20260905195351 | 74 | 72 | 0.0 | 2.6 | 0.00 | 0.36 | 0.00 | 87 | 1012.1 |
| 20260905194851 | 73 | 71 | 1.7 | 1.7 | 0.00 | 0.36 | 0.00 | 87 | 1012.5 |
| 20260905194351 | 73 | 71 | 0.0 | 0.9 | 0.00 | 0.36 | 0.00 | 87 | 1012.6 |
| 20260905193851 | 73 | 71 | 0.0 | 6.1 | 0.00 | 0.36 | 0.00 | 87 | 1012.8 |
| 20260905193351 | 72 | 96 | 5.2 | 6.1 | 0.00 | 0.36 | 0.00 | 87 | 1012.7 |
| 20260905192848 | 72 | 263 | 0.9 | 1.7 | 0.02 | 0.36 | 0.00 | 87 | 1012.8 |
| 20260905192348 | 72 | 263 | 0.0 | 5.2 | 0.04 | 0.36 | 0.00 | 87 | 1012.7 |
| 20260905191851 | 72 | 151 | 0.9 | 4.3 | 0.09 | 0.36 | 0.00 | 87 | 1011.9 |
| 20260905191348 | 71 | 151 | 0.9 | 2.6 | 0.20 | 0.36 | 0.00 | 87 | 1011.8 |
| 20260905190851 | 71 | 151 | 1.7 | 1.7 | 0.36 | 0.36 | 0.00 | 87 | 1011.5 |
| 20260905190348 | 71 | 151 | 0.0 | 1.7 | 0.36 | 0.36 | 0.00 | 87 | 1011.0 |
| 20260905185851 | 71 | 151 | 0.0 | 3.5 | 0.36 | 0.36 | 0.00 | 87 | 1010.7 |
| 20260905185348 | 71 | 152 | 1.7 | 4.3 | 0.36 | 0.36 | 0.00 | 87 | 1010.5 |
| 20260905184848 | 71 | 159 | 1.7 | 4.3 | 0.36 | 0.36 | 0.00 | 87 | 1010.8 |
| 20260905184351 | 71 | 160 | 1.7 | 5.2 | 0.36 | 0.36 | 0.00 | 87 | 1011.3 |
| 20260905183851 | 71 | 170 | 0.9 | 8.7 | 0.36 | 0.36 | 0.00 | 86 | 1011.5 |
| 20260905183348 | 72 | 157 | 5.2 | 7.0 | 0.36 | 0.36 | 0.00 | 85 | 1011.6 |
| 20260905182848 | 73 | 178 | 2.6 | 7.0 | 0.34 | 0.34 | 0.00 | 83 | 1012.0 |
| 20260905182351 | 73 | 224 | 4.3 | 12.2 | 0.31 | 0.31 | 0.00 | 81 | 1012.8 |
| 20260905181851 | 75 | 245 | 13.9 | 14.8 | 0.26 | 0.26 | 0.00 | 78 | 1013.7 |
| 20260905181348 | 77 | 321 | 12.2 | 30.4 | 0.16 | 0.16 | 0.00 | 73 | 1014.0 |
| 20260905180848 | 82 | 306 | 23.5 | 35.6 | 0.00 | 0.00 | 0.00 | 63 | 1013.0 |
| 20260905180351 | 87 | 272 | 22.6 | 32.2 | 0.00 | 0.00 | 0.00 | 54 | 1012.7 |
| 20260905175848 | 93 | 315 | 19.1 | 31.3 | 0.00 | 0.00 | 0.00 | 56 | 1012.6 |
| 20260905175351 | 94 | 333 | 7.0 | 10.4 | 0.00 | 0.00 | 0.00 | 54 | 1011.8 |
| 20260905174851 | 96 | 301 | 7.8 | 10.4 | 0.00 | 0.00 | 0.00 | 52 | 1011.8 |
| 20260905174351 | 96 | 281 | 7.0 | 9.6 | 0.00 | 0.00 | 0.00 | 53 | 1011.8 |
| 20260905173848 | 96 | 0 | 7.8 | 11.3 | 0.00 | 0.00 | 0.00 | 52 | 1011.6 |
| 20260905173348 | 96 | 273 | 7.8 | 12.2 | 0.00 | 0.00 | 0.00 | 52 | 1011.9 |
| 20260905172851 | 96 | 254 | 3.5 | 6.1 | 0.00 | 0.00 | 0.00 | 56 | 1012.0 |
| 20260905172348 | 96 | 291 | 7.0 | 7.0 | 0.00 | 0.00 | 0.00 | 57 | 1012.2 |
| 20260905171851 | 96 | 348 | 3.5 | 7.0 | 0.00 | 0.00 | 0.00 | 56 | 1012.3 |
| 20260905171351 | 95 | 331 | 4.3 | 9.6 | 0.00 | 0.00 | 0.00 | 57 | 1012.4 |
| 20260905170848 | 95 | 340 | 2.6 | 9.6 | 0.00 | 0.00 | 0.00 | 57 | 1012.6 |
| 20260905170351 | 95 | 347 | 4.3 | 7.8 | 0.00 | 0.00 | 0.00 | 59 | 1012.6 |
| 20260905165848 | 94 | 325 | 0.9 | 4.3 | 0.00 | 0.00 | 0.00 | 59 | 1012.7 |
| 20260905165351 | 94 | 284 | 2.6 | 7.8 | 0.00 | 0.00 | 0.00 | 59 | 1012.8 |
| 20260905164848 | 94 | 201 | 0.0 | 10.4 | 0.00 | 0.00 | 0.00 | 60 | 1012.7 |
| 20260905164348 | 94 | 268 | 6.1 | 10.4 | 0.00 | 0.00 | 0.00 | 60 | 1012.8 |
| 20260905163851 | 94 | 263 | 1.7 | 8.7 | 0.00 | 0.00 | 0.00 | 58 | 1012.8 |
| 20260905163348 | 94 | 285 | 5.2 | 7.8 | 0.00 | 0.00 | 0.00 | 58 | 1012.9 |
| 20260905162848 | 94 | 240 | 1.7 | 9.6 | 0.00 | 0.00 | 0.00 | 57 | 1013.0 |
| 20260905162351 | 94 | 311 | 3.5 | 7.0 | 0.00 | 0.00 | 0.00 | 59 | 1013.1 |
| 20260905161851 | 93 | 331 | 1.7 | 7.8 | 0.00 | 0.00 | 0.00 | 58 | 1013.1 |
| 20260905161351 | 93 | 262 | 7.0 | 7.0 | 0.00 | 0.00 | 0.00 | 62 | 1013.2 |
| 20260905160848 | 92 | 261 | 1.7 | 6.1 | 0.00 | 0.00 | 0.00 | 61 | 1013.2 |
| 20260905160351 | 92 | 249 | 2.6 | 6.1 | 0.00 | 0.00 | 0.00 | 63 | 1013.1 |
| 20260905155848 | 92 | 263 | 5.2 | 8.7 | 0.00 | 0.00 | 0.00 | 63 | 1013.1 |
| 20260905155348 | 91 | 256 | 0.9 | 7.8 | 0.00 | 0.00 | 0.00 | 63 | 1013.2 |
| 20260905154851 | 92 | 238 | 1.7 | 5.2 | 0.00 | 0.00 | 0.00 | 64 | 1013.2 |
| 20260905154348 | 91 | 177 | 2.6 | 5.2 | 0.00 | 0.00 | 0.00 | 66 | 1013.3 |
| 20260905153848 | 91 | 257 | 1.7 | 7.0 | 0.00 | 0.00 | 0.00 | 65 | 1013.4 |
| 20260905153348 | 91 | 279 | 2.6 | 7.0 | 0.00 | 0.00 | 0.00 | 64 | 1013.3 |
| 20260905152848 | 91 | 219 | 1.7 | 5.2 | 0.00 | 0.00 | 0.00 | 68 | 1013.3 |
| 20260905152348 | 89 | 252 | 3.5 | 4.3 | 0.00 | 0.00 | 0.00 | 67 | 1013.3 |
| 20260905151851 | 90 | 254 | 4.3 | 7.0 | 0.00 | 0.00 | 0.00 | 67 | 1013.3 |
| 20260905151348 | 89 | 253 | 2.6 | 4.3 | 0.00 | 0.00 | 0.00 | 67 | 1013.3 |
| 20260905150851 | 89 | 247 | 2.6 | 6.1 | 0.00 | 0.00 | 0.00 | 68 | 1013.4 |
| 20260905150351 | 88 | 226 | 1.7 | 5.2 | 0.00 | 0.00 | 0.00 | 70 | 1013.5 |
| 20260905145848 | 88 | 223 | 3.5 | 4.3 | 0.00 | 0.00 | 0.00 | 69 | 1013.5 |
| 20260905145351 | 88 | 209 | 2.6 | 6.1 | 0.00 | 0.00 | 0.00 | 71 | 1013.5 |
| 20260905144851 | 88 | 205 | 2.6 | 5.2 | 0.00 | 0.00 | 0.00 | 72 | 1013.6 |
| 20260905144351 | 87 | 202 | 0.9 | 5.2 | 0.00 | 0.00 | 0.00 | 74 | 1013.6 |
| 20260905143848 | 86 | 254 | 1.7 | 5.2 | 0.00 | 0.00 | 0.00 | 72 | 1013.6 |
| 20260905143348 | 86 | 222 | 1.7 | 5.2 | 0.00 | 0.00 | 0.00 | 74 | 1013.5 |
| 20260905142851 | 85 | 203 | 2.6 | 5.2 | 0.00 | 0.00 | 0.00 | 75 | 1013.5 |
| 20260905142348 | 85 | 260 | 3.5 | 7.8 | 0.00 | 0.00 | 0.00 | 74 | 1013.6 |
| 20260905141848 | 84 | 271 | 1.7 | 6.1 | 0.00 | 0.00 | 0.00 | 76 | 1013.5 |
| 20260905141351 | 84 | 245 | 3.5 | 4.3 | 0.00 | 0.00 | 0.00 | 76 | 1013.4 |
| 20260905140848 | 84 | 207 | 3.5 | 6.1 | 0.00 | 0.00 | 0.00 | 77 | 1013.4 |
| 20260905140348 | 83 | 222 | 1.7 | 6.1 | 0.00 | 0.00 | 0.00 | 78 | 1013.4 |
| 20260905135848 | 83 | 181 | 2.6 | 3.5 | 0.00 | 0.00 | 0.00 | 79 | 1013.5 |
| 20260905135348 | 83 | 178 | 1.7 | 3.5 | 0.00 | 0.00 | 0.00 | 80 | 1013.5 |
| 20260905134848 | 83 | 178 | 2.6 | 6.1 | 0.00 | 0.00 | 0.00 | 79 | 1013.5 |
| 20260905134351 | 82 | 167 | 3.5 | 6.1 | 0.00 | 0.00 | 0.00 | 82 | 1013.5 |
| 20260905133848 | 82 | 164 | 0.9 | 5.2 | 0.00 | 0.00 | 0.00 | 82 | 1013.5 |
| 20260905133351 | 81 | 155 | 2.6 | 2.6 | 0.00 | 0.00 | 0.00 | 84 | 1013.5 |
| 20260905132851 | 80 | 155 | 0.9 | 1.7 | 0.00 | 0.00 | 0.00 | 84 | 1013.6 |
| 20260905132348 | 79 | 155 | 0.9 | 2.6 | 0.00 | 0.00 | 0.00 | 85 | 1013.6 |
| 20260905131848 | 79 | 155 | 1.7 | 3.5 | 0.00 | 0.00 | 0.00 | 85 | 1013.6 |
| 20260905131348 | 78 | 123 | 0.0 | 3.5 | 0.00 | 0.00 | 0.00 | 86 | 1013.7 |
| 20260905130848 | 78 | 119 | 0.0 | 1.7 | 0.00 | 0.00 | 0.00 | 86 | 1013.7 |
| 20260905130348 | 78 | 119 | 0.9 | 3.5 | 0.00 | 0.00 | 0.00 | 87 | 1013.7 |
| 20260905125851 | 77 | 116 | 2.6 | 2.6 | 0.00 | 0.00 | 0.00 | 87 | 1013.8 |
| 20260905125348 | 77 | 115 | 0.9 | 2.6 | 0.00 | 0.00 | 0.00 | 87 | 1013.8 |
| 20260905124848 | 76 | 113 | 1.7 | 2.6 | 0.00 | 0.00 | 0.00 | 87 | 1013.9 |
| 20260905124351 | 76 | 113 | 0.9 | 2.6 | 0.00 | 0.00 | 0.00 | 87 | 1013.8 |
| 20260905123851 | 76 | 112 | 1.7 | 2.6 | 0.00 | 0.00 | 0.00 | 87 | 1013.9 |
| 20260905123348 | 75 | 111 | 1.7 | 3.5 | 0.00 | 0.00 | 0.00 | 87 | 1013.9 |
| 20260905122851 | 75 | 121 | 2.6 | 2.6 | 0.00 | 0.00 | 0.00 | 87 | 1013.9 |
| 20260905122351 | 74 | 173 | 1.7 | 2.6 | 0.00 | 0.00 | 0.00 | 87 | 1013.9 |
| 20260905121848 | 73 | 173 | 0.0 | 0.0 | 0.00 | 0.00 | 0.00 | 87 | 1013.8 |
| 20260905121348 | 73 | 173 | 0.0 | 2.6 | 0.00 | 0.00 | 0.00 | 87 | 1013.8 |
| 20260905120848 | 73 | 173 | 1.7 | 4.3 | 0.00 | 0.00 | 0.00 | 87 | 1013.9 |
| 20260905120351 | 73 | 173 | 1.7 | 2.6 | 0.00 | 0.00 | 0.00 | 86 | 1013.7 |
| 20260905115851 | 73 | 173 | 0.9 | 2.6 | 0.00 | 0.00 | 0.00 | 87 | 1013.7 |
| 20260905115351 | 72 | 173 | 0.0 | 0.0 | 0.00 | 0.00 | 0.00 | 87 | 1013.6 |
| 20260905114851 | 72 | 173 | 0.0 | 0.0 | 0.00 | 0.00 | 0.00 | 87 | 1013.6 |
| 20260905114348 | 71 | 173 | 0.0 | 0.0 | 0.00 | 0.00 | 0.00 | 87 | 1013.6 |
| 20260905113848 | 71 | 173 | 0.0 | 0.0 | 0.00 | 0.00 | 0.00 | 87 | 1013.5 |
| 20260905113348 | 71 | 173 | 0.0 | 0.0 | 0.00 | 0.00 | 0.00 | 87 | 1013.4 |
| 20260905112848 | 71 | 173 | 0.0 | 1.7 | 0.00 | 0.00 | 0.00 | 87 | 1013.5 |
| 20260905112351 | 71 | 173 | 0.9 | 2.6 | 0.00 | 0.00 | 0.00 | 87 | 1013.4 |
| 20260905111851 | 71 | 33 | 1.7 | 2.6 | 0.00 | 0.00 | 0.00 | 87 | 1013.3 |
| 20260905111348 | 71 | 58 | 0.0 | 0.0 | 0.00 | 0.00 | 0.00 | 87 | 1013.3 |
| 20260905110851 | 71 | 58 | 0.0 | 0.0 | 0.00 | 0.00 | 0.00 | 87 | 1013.3 |
| 20260905110348 | 71 | 58 | 0.0 | 0.0 | 0.00 | 0.00 | 0.00 | 87 | 1013.2 |
| 20260905105848 | 71 | 58 | 0.0 | 0.0 | 0.00 | 0.00 | 0.00 | 87 | 1013.2 |
| 20260905105351 | 71 | 58 | 0.0 | 0.0 | 0.00 | 0.00 | 0.00 | 87 | 1013.1 |
| 20260905104851 | 71 | 58 | 0.0 | 0.0 | 0.00 | 0.00 | 0.00 | 87 | 1013.1 |
| 20260905104351 | 71 | 58 | 0.0 | 0.0 | 0.00 | 0.00 | 0.00 | 87 | 1013.3 |
| 20260905103848 | 71 | 58 | 0.0 | 0.0 | 0.00 | 0.00 | 0.00 | 87 | 1013.2 |
| 20260905103351 | 71 | 58 | 0.0 | 0.0 | 0.00 | 0.00 | 0.00 | 87 | 1013.2 |
| 20260905102848 | 71 | 58 | 0.0 | 0.0 | 0.00 | 0.00 | 0.00 | 87 | 1013.1 |
| 20260905102348 | 71 | 58 | 0.0 | 0.0 | 0.00 | 0.00 | 0.00 | 87 | 1012.9 |
| 20260905101848 | 72 | 58 | 0.0 | 0.0 | 0.00 | 0.00 | 0.00 | 87 | 1012.9 |
| 20260905101351 | 72 | 58 | 0.0 | 0.0 | 0.00 | 0.00 | 0.00 | 88 | 1013.0 |
| 20260905100848 | 72 | 58 | 0.0 | 0.0 | 0.00 | 0.00 | 0.00 | 88 | 1012.9 |
| 20260905100351 | 72 | 58 | 0.0 | 0.0 | 0.00 | 0.00 | 0.00 | 88 | 1012.8 |
| 20260905095851 | 72 | 58 | 0.0 | 0.0 | 0.00 | 0.00 | 0.00 | 88 | 1012.7 |
| 20260905095351 | 72 | 58 | 0.0 | 0.0 | 0.00 | 0.00 | 0.00 | 88 | 1012.7 |
| 20260905094848 | 72 | 58 | 0.0 | 0.0 | 0.00 | 0.00 | 0.00 | 88 | 1012.7 |
| 20260905094348 | 72 | 58 | 0.0 | 0.0 | 0.00 | 0.00 | 0.00 | 87 | 1012.8 |
| 20260905093851 | 72 | 58 | 0.0 | 0.0 | 0.00 | 0.00 | 0.00 | 87 | 1012.8 |
| 20260905093351 | 72 | 58 | 0.0 | 0.0 | 0.00 | 0.00 | 0.00 | 87 | 1012.8 |